Zurück zum Katalog

STARLINK-4728

AktivKommunikationVLEO
NORAD 53793·PAYLOAD·🇺🇸 United States

Gestartet Sep 11, 2022 von Cape Canaveral Space Force Station

Loading…

Nächste Überflüge (nächste 24 Stunden)

TLE

AktuellSource: CelesTrak SupGP

Epoche: Sep 14, 2026, 21:46 UTC

1 53793C 22111W   26257.90743056 -.00020196  00000+0 -64957-3 0  2570
2 53793  53.1584 132.0592 0001739  79.5284 251.2429 15.31705138    12

Verfolge STARLINK-4728 in Echtzeit mit AllMySat

Download on the App Store